1532836800.61,695,20.19,74204.5,6.79,-13.83,-14.23,0,*72
1532836801.8,696,20.19,74204.3,6.75,-13.93,-14.29,0,*76
1532836803.01,697,20.19,74204.8,6.75,-13.87,-14.29,0,*72
1532836804.2,698,20.19,74206.5,6.75,-13.93,-14.33,0,*73
1532836805.38,699,20.19,74204.5,6.75,-13.93,-14.33,0,*72
1532836806.56,700,20.19,74206.0,6.79,-13.73,-14.11,0,*71
1532836807.75,701,20.19,74202.8,6.75,-13.73,-14.15,0,*78
1532836808.94,702,20.19,74204.3,6.75,-13.93,-14.29,0,*7A
1532836810.13,703,20.19,74202.0,6.79,-13.73,-14.15,0,*76
1532836811.31,704,20.19,74206.0,6.75,-13.93,-14.33,0,*77
1532836812.53,705,20.19,74206.0,6.75,-14.01,-14.33,0,*7A
1532836813.72,706,20.19,74206.0,6.75,-13.93,-14.33,0,*75
1532836814.93,707,20.19,74206.8,6.75,-13.79,-14.19,0,*78
1532836816.15,708,20.19,74206.0,6.75,-13.79,-14.29,0,*74
1532836817.34,709,20.19,74204.3,6.75,-13.93,-14.29,0,*71
1532836818.55,710,20.19,74202.0,6.75,-13.87,-14.33,0,*77
1532836819.76,711,20.19,74204.5,6.75,-13.87,-14.29,0,*7D
1532836820.98,712,20.19,74202.3,6.75,-13.87,-14.29,0,*7E
1532836822.2,713,20.19,74204.3,6.79,-13.83,-14.15,0,*78
1532836823.41,714,20.19,74208.0,6.75,-13.79,-14.33,0,*72
1532836824.62,715,20.19,74204.0,6.79,-13.97,-14.29,0,*74
1532836825.84,716,20.19,74204.5,6.75,-14.01,-14.33,0,*78
1532836827.06,717,20.19,74206.3,6.75,-13.79,-14.15,0,*75
1532836828.27,718,20.19,74210.5,6.75,-13.87,-14.33,0,*7F
1532836829.5,719,20.19,74208.5,6.75,-14.01,-14.33,0,*77
1532836830.71,720,20.19,74204.0,6.75,-13.79,-14.29,0,*7E
1532836831.9,721,20.19,74206.5,6.75,-13.73,-14.19,0,*76
1532836833.09,722,20.19,74208.8,6.75,-13.73,-14.19,0,*75
1532836834.3,723,20.19,74206.8,6.75,-13.73,-14.05,0,*79
1532836835.51,724,20.19,74206.0,6.75,-13.61,-13.93,0,*75
1532836836.72,725,20.19,74202.8,6.79,-13.51,-13.87,0,*7E
1532836837.93,726,20.19,74206.3,6.79,-13.55,-13.87,0,*79
1532836839.12,727,20.19,74210.8,6.75,-13.73,-14.15,0,*7C
1532836840.3,728,20.19,74206.5,6.79,-13.69,-14.11,0,*70
1532836841.53,729,20.19,74208.0,6.79,-13.61,-14.01,0,*78
1532836842.74,730,20.19,74202.5,6.79,-13.43,-13.83,0,*7D
1532836843.98,731,20.19,74204.5,6.79,-13.61,-14.01,0,*71
1532836845.19,732,20.19,74206.5,6.75,-13.87,-14.29,0,*7C
1532836846.41,733,20.19,74202.3,6.79,-13.83,-14.15,0,*7A
1532836847.62,734,20.19,74200.5,6.79,-13.83,-14.15,0,*7D
1532836848.81,735,20.19,74200.8,6.79,-13.73,-14.23,0,*76
1532836850.02,736,20.19,74202.5,6.79,-13.83,-14.15,0,*7F
1532836851.21,737,20.19,74198.8,6.79,-13.73,-14.23,0,*74
1532836852.44,738,20.19,74196.5,6.75,-13.87,-14.43,0,*7A
1532836853.68,739,20.19,74200.0,6.79,-13.61,-14.01,0,*79
1532836854.86,740,20.19,74204.8,6.79,-13.73,-14.11,0,*75
1532836856.08,741,20.19,74206.3,6.79,-13.83,-14.23,0,*7A
1532836857.29,742,20.19,74208.5,6.79,-13.83,-14.23,0,*79
1532836858.48,743,20.19,74204.3,6.75,-13.73,-14.19,0,*72
1532836859.67,744,20.19,74198.3,6.75,-13.65,-14.15,0,*7E
1532836860.88,745,20.19,74198.8,6.79,-13.55,-14.01,0,*75
1532836862.13,746,20.19,74200.0,6.81,-13.51,-13.97,0,*7D
1532836863.31,747,20.19,74202.8,6.79,-13.69,-14.15,0,*7D
1532836864.5,748,20.19,74206.8,6.79,-13.73,-14.23,0,*7C
1532836865.71,749,20.19,74204.8,6.79,-13.97,-14.37,0,*72
1532836866.93,750,20.19,74204.3,6.79,-13.83,-14.29,0,*70
1532836868.14,751,20.19,74204.8,6.79,-13.83,-14.23,0,*7B
1532836869.36,752,20.19,74208.0,6.79,-13.83,-14.23,0,*78
1532836870.59,753,20.19,74204.0,6.81,-13.79,-14.19,0,*72
1532836871.8,754,20.19,74206.3,6.79,-13.55,-13.97,0,*7D
1532836873.01,755,20.19,74200.0,6.79,-13.55,-14.01,0,*74
1532836874.25,756,20.19,74200.3,6.81,-13.65,-14.05,0,*77
1532836875.48,757,20.19,74200.5,6.81,-13.79,-14.11,0,*7E
1532836876.72,758,20.19,74202.3,6.81,-13.83,-14.23,0,*75
1532836877.98,759,20.19,74208.5,6.81,-13.79,-14.05,0,*75
1532836879.22,760,20.19,74204.8,6.81,-13.55,-13.97,0,*7D
1532836880.47,761,20.19,74206.3,6.81,-13.37,-13.83,0,*7D
1532836881.68,762,20.19,74202.3,6.81,-13.51,-13.93,0,*7F
1532836882.89,763,20.19,74202.0,6.81,-13.65,-14.11,0,*74
1532836884.12,764,20.19,74202.0,6.81,-13.79,-14.19,0,*76
1532836885.32,765,20.19,74206.3,6.81,-13.69,-14.11,0,*7E
1532836886.51,766,20.19,74202.5,6.83,-13.93,-14.23,0,*7B
1532836887.7,767,20.19,74204.8,6.83,-13.93,-14.33,0,*7B
1532836888.93,768,20.19,74200.3,6.81,-13.79,-14.23,0,*73
1532836890.11,769,20.19,74200.3,6.83,-13.65,-14.11,0,*7C
1532836891.32,770,20.19,74200.0,6.81,-13.65,-14.11,0,*76
1532836892.5,771,20.19,74200.3,6.83,-13.69,-14.11,0,*79
1532836893.74,772,20.19,74200.3,6.81,-13.83,-14.33,0,*7C
1532836894.95,773,20.19,74202.3,6.81,-13.93,-14.33,0,*7C
1532836896.14,774,20.19,74200.8,6.83,-13.93,-14.33,0,*79
1532836897.34,775,20.19,74204.3,6.81,-13.93,-14.33,0,*7A
1532836898.58,776,20.19,74204.3,6.81,-13.83,-14.33,0,*78
1532836899.82,777,20.19,74204.5,6.81,-13.83,-14.33,0,*79
1532836901.01,778,20.19,74206.0,6.83,-13.93,-14.33,0,*75
1532836902.22,779,20.19,74200.3,6.81,-13.93,-14.33,0,*76
1532836903.42,780,20.19,74206.5,6.81,-13.93,-14.23,0,*71
1532836904.63,781,20.19,74206.8,6.81,-13.93,-14.23,0,*70
1532836905.82,782,20.19,74206.5,6.83,-13.93,-14.33,0,*70
1532836907.06,783,20.19,74206.3,6.81,-13.83,-14.23,0,*73
1532836908.27,784,20.19,74202.3,6.83,-13.79,-14.11,0,*72
1532836909.47,785,20.19,74196.3,6.81,-13.69,-14.11,0,*70
1532836910.69,786,20.19,74196.8,6.83,-13.79,-14.19,0,*78
1532836911.91,787,20.19,74200.5,6.83,-13.83,-14.23,0,*75
1532836913.15,788,20.19,74200.0,6.81,-13.83,-14.33,0,*79
1532836914.33,789,20.19,74202.8,6.83,-13.93,-14.37,0,*7F
1532836915.52,790,20.25,74202.8,6.83,-13.93,-14.33,0,*73
1532836916.71,791,20.19,74198.8,6.83,-13.93,-14.33,0,*72
1532836917.93,792,20.19,74204.5,6.83,-14.05,-14.37,0,*7D
1532836919.15,793,20.25,74210.5,6.83,-13.83,-14.33,0,*71
1532836920.39,794,20.25,74206.3,6.81,-13.83,-14.23,0,*75
1532836921.59,795,20.19,74204.0,6.81,-13.93,-14.37,0,*70
1532836922.8,796,20.25,74210.0,6.81,-13.93,-14.33,0,*77
1532836924.01,797,20.19,74210.0,6.81,-13.93,-14.33,0,*76
1532836925.19,798,20.25,74206.5,6.83,-13.93,-14.33,0,*7B
1532836926.44,799,20.19,74206.0,6.81,-13.97,-14.33,0,*7C
1532836927.66,800,20.19,74210.8,6.83,-13.97,-14.33,0,*71
1532836928.86,801,20.25,74210.8,6.81,-13.93,-14.33,0,*76
1532836930.08,802,20.19,74206.5,6.83,-13.83,-14.33,0,*76
1532836931.32,803,20.19,74206.5,6.81,-13.65,-13.97,0,*74
1532836932.53,804,20.19,74204.0,6.83,-13.65,-14.05,0,*7D
1532836933.74,805,20.25,74208.8,6.83,-13.79,-14.19,0,*7C
1532836934.98,806,20.25,74208.0,6.81,-13.79,-14.23,0,*74
1532836936.18,807,20.25,74208.3,6.81,-13.93,-14.33,0,*70
1532836937.41,808,20.25,74206.5,6.83,-13.83,-14.23,0,*7D
1532836938.63,809,20.25,74208.3,6.83,-13.83,-14.23,0,*7C
1532836939.83,810,20.25,74208.0,6.81,-13.93,-14.33,0,*76
1532836941.07,811,20.25,74206.5,6.81,-13.83,-14.19,0,*7E
1532836942.31,812,20.25,74204.5,6.81,-13.83,-14.33,0,*75
1532836943.53,813,20.25,74206.5,6.83,-13.83,-14.33,0,*76
1532836944.77,814,20.25,74204.3,6.81,-13.83,-14.19,0,*7B
1532836946.01,815,20.25,74210.5,6.81,-13.83,-14.23,0,*73
1532836947.24,816,20.25,74210.3,6.83,-13.83,-14.23,0,*72
1532836948.44,817,20.19,74206.5,6.81,-13.69,-14.11,0,*74
1532836949.65,818,20.25,74204.8,6.83,-13.79,-14.19,0,*70
1532836950.9,819,20.25,74202.5,6.81,-13.83,-14.23,0,*7F
1532836952.1,820,20.25,74206.0,6.81,-13.93,-14.33,0,*75
1532836953.32,821,20.25,74206.8,6.83,-13.79,-14.19,0,*7A
1532836954.55,822,20.25,74208.5,6.81,-13.79,-14.23,0,*72
1532836955.74,823,20.19,74206.3,6.83,-13.69,-14.23,0,*70
1532836956.93,824,20.25,74204.0,6.83,-13.55,-14.11,0,*79
1532836958.14,825,20.25,74202.8,6.83,-13.65,-14.05,0,*7E
1532836959.35,826,20.19,74202.5,6.83,-13.79,-14.23,0,*74
1532836960.54,827,20.25,74202.8,6.83,-13.69,-14.11,0,*75
1532836961.72,828,20.25,74202.0,6.83,-13.69,-14.11,0,*7A
1532836962.91,829,20.25,74202.8,6.83,-13.69,-14.19,0,*73
1532836964.12,830,20.25,74202.8,6.83,-13.69,-14.05,0,*76
1532836965.35,831,20.25,74202.3,6.83,-13.83,-14.23,0,*77
1532836966.57,832,20.25,74206.3,6.83,-13.83,-14.37,0,*71
1532836967.79,833,20.25,74210.5,6.85,-14.01,-14.33,0,*7F
1532836969.0,834,20.25,74212.0,6.83,-13.79,-14.19,0,*7E
1532836970.18,835,20.25,74204.5,6.83,-13.65,-14.11,0,*7A
1532836971.39,836,20.25,74200.8,6.83,-13.79,-14.19,0,*7C
1532836972.58,837,20.25,74206.3,6.85,-13.73,-14.15,0,*7D
1532836973.8,838,20.25,74206.3,6.83,-13.79,-14.23,0,*7B
1532836975.01,839,20.25,74206.5,6.83,-13.79,-14.19,0,*73
1532836976.19,840,20.25,74208.0,6.83,-13.93,-14.19,0,*79
1532836977.38,841,20.25,74208.8,6.83,-13.93,-14.23,0,*71
1532836978.6,842,20.25,74210.0,6.83,-13.83,-14.33,0,*72
1532836979.82,843,20.25,74206.3,6.83,-13.83,-14.23,0,*72
1532836981.04,844,20.25,74206.3,6.85,-13.87,-14.29,0,*7D
1532836982.22,845,20.25,74210.3,6.85,-13.73,-14.19,0,*74
1532836983.41,846,20.25,74206.0,6.85,-13.73,-14.15,0,*7B
1532836984.6,847,20.25,74204.0,6.85,-13.73,-14.19,0,*76
1532836985.81,848,20.25,74204.8,6.85,-13.79,-14.29,0,*70
1532836987.0,849,20.25,74204.5,6.85,-13.73,-14.19,0,*78
1532836988.24,850,20.25,74204.8,6.87,-13.87,-14.29,0,*7A
1532836989.45,851,20.25,74206.0,6.85,-13.79,-14.15,0,*77
1532836990.64,852,20.25,74208.5,6.85,-13.73,-14.15,0,*7E
1532836991.86,853,20.25,74206.0,6.85,-13.87,-14.29,0,*7B
1532836993.07,854,20.25,74210.3,6.83,-13.83,-14.33,0,*75
1532836994.31,855,20.25,74208.0,6.85,-13.61,-14.05,0,*7B
1532836995.53,856,20.25,74204.0,6.83,-13.79,-14.23,0,*73
1532836996.72,857,20.25,74202.3,6.85,-13.73,-14.15,0,*7B
1532836997.93,858,20.25,74208.0,6.85,-13.65,-14.05,0,*72
1532836999.12,859,20.25,74208.0,6.85,-13.73,-14.15,0,*75
1532837000.33,860,20.25,74208.0,6.85,-13.79,-14.19,0,*79
1532837001.54,861,20.25,74208.0,6.85,-13.65,-14.05,0,*78
1532837002.78,862,20.25,74204.3,6.85,-13.61,-14.05,0,*7F
1532837003.97,863,20.25,74200.8,6.85,-13.73,-14.19,0,*70
1532837005.18,864,20.25,74200.3,6.85,-13.87,-14.29,0,*7F
1532837006.39,865,20.25,74202.8,6.87,-13.93,-14.19,0,*7A
1532837007.6,866,20.25,74204.5,6.85,-13.73,-14.05,0,*78
1532837008.82,867,20.25,74206.8,6.87,-13.73,-14.15,0,*7A
1532837010.04,868,20.25,74204.8,6.87,-13.65,-14.15,0,*72
1532837011.23,869,20.25,74208.3,6.85,-13.73,-14.15,0,*76
1532837012.47,870,20.25,74208.5,6.87,-13.87,-14.29,0,*78
1532837013.71,871,20.25,74204.8,6.87,-13.79,-14.29,0,*78
1532837014.92,872,20.25,74208.3,6.85,-13.87,-14.29,0,*78
1532837016.13,873,20.25,74212.0,6.85,-13.79,-14.29,0,*78
1532837017.35,874,20.25,74208.3,6.85,-14.01,-14.33,0,*7C
1532837018.53,875,20.25,74210.5,6.85,-13.93,-14.33,0,*71
1532837019.72,876,20.25,74208.8,6.85,-13.93,-14.33,0,*72
1532837020.9,877,20.25,74204.8,6.85,-13.93,-14.33,0,*73
1532837022.14,878,20.25,74206.5,6.87,-13.79,-14.29,0,*71
1532837023.35,879,20.25,74208.3,6.85,-13.79,-14.29,0,*72
1532837024.56,880,20.25,74208.3,6.85,-13.79,-14.33,0,*7F
1532837025.77,881,20.25,74208.8,6.85,-13.87,-14.33,0,*7F
1532837027.0,882,20.25,74212.0,6.83,-13.97,-14.37,0,*7F
1532837028.21,883,20.25,74210.3,6.85,-13.87,-14.29,0,*76
1532837029.42,884,20.25,74208.3,6.85,-13.87,-14.33,0,*7A
1532837030.66,885,20.25,74210.5,6.87,-13.87,-14.33,0,*79
1532837031.85,886,20.25,74208.8,6.85,-13.73,-14.19,0,*7B
1532837033.06,887,20.25,74204.0,6.85,-13.87,-14.33,0,*79
1532837034.27,888,20.25,74204.5,6.85,-13.87,-14.33,0,*76
1532837035.48,889,20.25,74210.8,6.85,-13.79,-14.29,0,*7D
1532837036.7,890,20.25,74208.8,6.87,-13.93,-14.37,0,*7C
1532837037.92,891,20.25,74206.8,6.83,-13.97,-14.37,0,*7D
1532837039.12,892,20.25,74206.5,6.85,-13.93,-14.43,0,*7F
1532837040.33,893,20.25,74206.5,6.85,-13.87,-14.37,0,*78
1532837041.58,894,20.25,74202.8,6.85,-14.01,-14.47,0,*71
1532837042.8,895,20.25,74202.0,6.85,-14.01,-14.37,0,*77
1532837043.98,896,20.25,74202.5,6.85,-13.93,-14.37,0,*78
1532837045.23,897,20.25,74204.5,6.87,-14.01,-14.37,0,*77
1532837046.45,898,20.25,74200.3,6.85,-14.01,-14.37,0,*7A
1532837047.67,899,20.25,74198.8,6.85,-14.01,-14.33,0,*7F
1532837048.85,900,20.25,74202.5,6.85,-13.93,-14.33,0,*72
1532837050.1,901,20.25,74202.8,6.85,-14.01,-14.47,0,*7C
1532837051.34,902,20.25,74204.5,6.87,-13.93,-14.47,0,*71
1532837052.53,903,20.25,74204.0,6.85,-13.93,-14.33,0,*71
1532837053.71,904,20.25,74204.5,6.85,-13.93,-14.33,0,*76
1532837054.93,905,20.25,74204.8,6.85,-14.01,-14.37,0,*7F
1532837056.12,906,20.25,74206.0,6.85,-13.93,-14.37,0,*70
1532837057.3,907,20.25,74204.8,6.85,-13.93,-14.37,0,*71
1532837058.49,908,20.25,74206.0,6.85,-13.93,-14.33,0,*7A
1532837059.71,909,20.25,74204.5,6.85,-14.01,-14.37,0,*73
1532837060.95,910,20.25,74204.0,6.85,-14.01,-14.51,0,*7B
1532837062.16,911,20.25,74204.3,6.85,-13.93,-14.47,0,*71
1532837063.41,912,20.25,74206.3,6.85,-14.01,-14.47,0,*7E
1532837064.66,913,20.25,74206.8,6.85,-14.01,-14.47,0,*7F
1532837065.85,914,20.25,74210.8,6.85,-13.93,-14.33,0,*77
1532837067.03,915,20.25,74202.5,6.85,-13.93,-14.37,0,*72
1532837068.25,916,20.25,74206.3,6.85,-14.01,-14.33,0,*79
1532837069.44,917,20.25,74208.8,6.85,-13.93,-14.33,0,*74
1532837070.62,918,20.25,74204.0,6.85,-13.65,-14.19,0,*7A
1532837071.83,919,20.25,74204.0,6.85,-13.87,-14.29,0,*74
1532837073.02,920,20.25,74202.3,6.85,-13.93,-14.37,0,*74
1532837074.2,921,20.25,74200.3,6.85,-13.93,-14.37,0,*75
1532837075.39,922,20.25,74206.8,6.85,-13.93,-14.29,0,*79
1532837076.6,923,20.25,74206.5,6.85,-13.87,-14.33,0,*76
1532837077.78,924,20.25,74204.0,6.85,-13.93,-14.37,0,*70
1532837079.0,925,20.25,74206.5,6.85,-13.79,-14.29,0,*7A
1532837080.24,926,20.25,74204.5,6.87,-13.87,-14.29,0,*7A
1532837081.42,927,20.25,74202.5,6.85,-13.93,-14.37,0,*73
1532837082.61,928,20.25,74196.8,6.85,-13.73,-14.19,0,*7E
1532837083.82,929,20.31,74202.8,6.85,-13.79,-14.29,0,*76
1532837085.03,930,20.25,74200.0,6.85,-13.87,-14.33,0,*74
1532837086.27,931,20.25,74198.3,6.87,-13.79,-14.33,0,*76
1532837087.45,932,20.25,74200.5,6.85,-13.93,-14.37,0,*77
1532837088.64,933,20.25,74202.8,6.85,-13.93,-14.33,0,*72
1532837089.86,934,20.25,74200.5,6.85,-14.01,-14.37,0,*7D
1532837091.07,935,20.25,74198.3,6.85,-13.87,-14.29,0,*7A
1532837092.28,936,20.25,74198.3,6.85,-13.87,-14.29,0,*79
1532837093.5,937,20.25,74200.5,6.85,-13.87,-14.29,0,*78
1532837094.71,938,20.25,74202.8,6.85,-13.87,-14.29,0,*77
1532837095.95,939,20.25,74198.0,6.87,-13.87,-14.29,0,*74
1532837097.19,940,20.25,74198.5,6.87,-14.01,-14.33,0,*78
1532837098.44,941,20.25,74202.3,6.87,-14.01,-14.29,0,*72
1532837099.68,942,20.25,74202.3,6.87,-13.87,-14.37,0,*77
1532837100.89,943,20.25,74200.3,6.87,-13.93,-14.33,0,*77
1532837102.1,944,20.25,74200.5,6.85,-13.87,-14.29,0,*7C
1532837103.34,945,20.25,74196.5,6.87,-13.87,-14.29,0,*7F
1532837104.58,946,20.25,74202.3,6.87,-13.79,-14.29,0,*7D
1532837105.82,947,20.25,74202.5,6.87,-13.87,-14.19,0,*7E
1532837107.04,948,20.25,74202.3,6.87,-13.73,-14.15,0,*76
1532837108.25,949,20.25,74200.8,6.87,-13.65,-14.15,0,*70
1532837109.44,950,20.31,74202.8,6.89,-13.69,-14.11,0,*7E
1532837110.65,951,20.25,74202.0,6.87,-13.73,-14.15,0,*7E
1532837111.89,952,20.25,74204.8,6.87,-13.87,-14.33,0,*72
1532837113.1,953,20.25,74204.8,6.89,-13.61,-14.11,0,*75
1532837114.32,954,20.25,74202.0,6.89,-13.55,-13.97,0,*7C
1532837115.54,955,20.25,74200.5,6.87,-13.73,-14.15,0,*7A
1532837116.78,956,20.31,74202.0,6.87,-13.79,-14.29,0,*7C
1532837118.02,957,20.25,74198.8,6.87,-13.87,-14.33,0,*77
1532837119.24,958,20.31,74200.8,6.85,-14.01,-14.37,0,*77
1532837120.46,959,20.25,74202.3,6.89,-13.97,-14.29,0,*7D
1532837121.68,960,20.25,74198.5,6.89,-13.87,-14.33,0,*7D
1532837122.89,961,20.31,74206.0,6.89,-13.87,-14.29,0,*77
1532837124.11,962,20.25,74204.5,6.89,-13.97,-14.33,0,*7E
1532837125.36,963,20.25,74200.5,6.89,-13.97,-14.43,0,*78
1532837126.6,964,20.25,74202.5,6.89,-14.01,-14.43,0,*77
1532837127.81,965,20.31,74200.5,6.89,-13.87,-14.33,0,*78
1532837129.04,966,20.31,74202.8,6.89,-13.97,-14.33,0,*7A
1532837130.25,967,20.25,74198.8,6.89,-13.87,-14.33,0,*7A
1532837131.47,968,20.25,74202.3,6.89,-13.83,-14.29,0,*7A
1532837132.7,969,20.31,74204.0,6.89,-13.83,-14.15,0,*74
1532837133.94,970,20.25,74196.3,6.87,-13.87,-14.29,0,*79
1532837135.13,971,20.31,74202.0,6.89,-13.73,-14.23,0,*77
1532837136.35,972,20.31,74204.5,6.89,-13.83,-14.29,0,*71
1532837137.58,973,20.31,74204.5,6.89,-13.97,-14.33,0,*7E
1532837138.79,974,20.25,74204.8,6.89,-13.87,-14.29,0,*73
1532837140.01,975,20.31,74202.3,6.89,-13.83,-14.29,0,*76
1532837141.24,976,20.31,74198.0,6.89,-13.83,-14.29,0,*75
1532837142.45,977,20.31,74196.3,6.87,-13.93,-14.33,0,*70
1532837143.66,978,20.25,74198.5,6.87,-13.93,-14.37,0,*7B
1532837144.87,979,20.31,74204.3,6.87,-13.93,-14.37,0,*7A
1532837146.12,980,20.25,74202.5,6.87,-14.01,-14.37,0,*70
1532837147.33,981,20.25,74206.0,6.87,-13.65,-14.15,0,*74
1532837148.57,982,20.31,74206.8,6.87,-13.87,-14.33,0,*7F
1532837149.76,983,20.25,74202.0,6.89,-13.73,-14.29,0,*70
1532837150.95,984,20.31,74202.5,6.89,-13.73,-14.23,0,*7D
1532837152.17,985,20.31,74200.0,6.89,-13.87,-14.29,0,*7D
1532837153.42,986,20.25,74202.3,6.87,-14.01,-14.37,0,*76
1532837154.66,987,20.31,74202.8,6.87,-14.01,-14.37,0,*77
1532837155.88,988,20.31,74202.5,6.91,-13.93,-14.37,0,*73
1532837157.1,989,20.25,74202.3,6.89,-13.83,-14.29,0,*75
1532837158.31,990,20.31,74206.3,6.89,-13.87,-14.33,0,*72
1532837159.54,991,20.31,74204.8,6.89,-13.97,-14.29,0,*79
1532837160.75,992,20.25,74202.3,6.89,-13.87,-14.29,0,*7B
1532837161.97,993,20.31,74206.3,6.89,-13.87,-14.33,0,*71
1532837163.19,994,20.31,74202.8,6.89,-14.01,-14.33,0,*7F
1532837164.41,995,20.31,74202.0,6.89,-13.83,-14.29,0,*78
1532837165.6,996,20.31,74204.5,6.89,-13.73,-14.23,0,*7E
1532837166.82,997,20.31,74200.5,6.89,-13.87,-14.29,0,*7E
1532837168.04,998,20.31,74204.5,6.91,-13.93,-14.29,0,*7D
1532837169.25,999,20.31,74206.3,6.89,-13.87,-14.33,0,*7B
1532837170.45,1000,20.31,74202.0,6.89,-13.73,-14.15,0,*4C
1532837171.7,1001,20.31,74200.8,6.91,-13.79,-14.23,0,*4B
1532837172.93,1002,20.31,74202.0,6.89,-13.83,-14.15,0,*41
1532837174.18,1003,20.31,74206.8,6.91,-13.79,-14.23,0,*49
1532837175.41,1004,20.31,74202.8,6.89,-13.83,-14.29,0,*48
1532837176.63,1005,20.31,74206.3,6.89,-13.87,-14.33,0,*46
1532837177.85,1006,20.31,74202.5,6.89,-13.87,-14.29,0,*4E
1532837179.1,1007,20.31,74200.3,6.91,-13.97,-14.33,0,*4C
1532837180.35,1008,20.31,74200.3,6.89,-13.97,-14.43,0,*4D
1532837181.61,1009,20.31,74204.5,6.91,-13.97,-14.37,0,*46
1532837182.85,1010,20.31,74206.0,6.89,-14.01,-14.43,0,*4C
1532837184.08,1011,20.31,74202.5,6.89,-13.87,-14.29,0,*48
1532837185.32,1012,20.31,74196.8,6.89,-13.97,-14.43,0,*46
1532837186.55,1013,20.31,74200.5,6.89,-13.87,-14.29,0,*4A
1532837187.77,1014,20.31,74202.5,6.89,-13.87,-14.33,0,*46
1532837188.98,1015,20.31,74206.0,6.87,-13.93,-14.37,0,*48
1532837190.2,1016,20.31,74206.5,6.89,-13.87,-14.33,0,*44
1532837191.43,1017,20.31,74202.5,6.89,-13.97,-14.33,0,*44
1532837192.65,1018,20.31,74204.5,6.89,-13.87,-14.33,0,*4A
1532837193.88,1019,20.31,74202.8,6.89,-13.97,-14.29,0,*41
1532837195.11,1020,20.31,74204.3,6.89,-13.83,-14.29,0,*4E
1532837196.34,1021,20.31,74204.3,6.89,-13.97,-14.33,0,*41
1532837197.56,1022,20.31,74204.5,6.87,-13.93,-14.37,0,*4C
1532837198.81,1023,20.31,74204.8,6.87,-14.01,-14.37,0,*41
1532837200.06,1024,20.31,74204.5,6.87,-14.01,-14.37,0,*46
1532837201.27,1025,20.31,74202.5,6.87,-13.93,-14.33,0,*4F
1532837202.49,1026,20.31,74206.3,6.87,-13.93,-14.37,0,*48
1532837203.71,1027,20.31,74206.8,6.87,-13.93,-14.29,0,*46
1532837204.95,1028,20.31,74204.5,6.87,-13.87,-14.33,0,*47
1532837206.2,1029,20.31,74204.8,6.87,-13.87,-14.33,0,*46
1532837207.44,1030,20.31,74206.3,6.87,-13.87,-14.33,0,*4E
1532837208.66,1031,20.31,74204.3,6.87,-13.93,-14.33,0,*4A
1532837209.91,1032,20.31,74202.8,6.87,-14.01,-14.37,0,*41
1532837211.13,1033,20.31,74202.5,6.87,-13.93,-14.37,0,*4C
1532837212.35,1034,20.31,74200.0,6.89,-13.87,-14.33,0,*44
1532837213.57,1035,20.31,74206.5,6.89,-13.87,-14.33,0,*45
1532837214.79,1036,20.31,74206.0,6.87,-13.93,-14.37,0,*49
1532837216.03,1037,20.31,74204.3,6.87,-13.87,-14.37,0,*4D
1532837217.28,1038,20.31,74206.0,6.89,-13.97,-14.43,0,*4E
1532837218.5,1039,20.31,74206.0,6.87,-13.93,-14.37,0,*46
1532837219.75,1040,20.31,74206.3,6.87,-14.01,-14.37,0,*44
1532837220.97,1041,20.31,74204.5,6.89,-13.87,-14.29,0,*4D
1532837222.17,1042,20.31,74200.0,6.89,-13.73,-14.29,0,*45
1532837223.39,1043,20.31,74200.8,6.89,-13.87,-14.33,0,*44
1532837224.64,1044,20.31,74204.0,6.89,-13.97,-14.43,0,*45
1532837225.86,1045,20.31,74206.5,6.89,-13.87,-14.29,0,*49
1532837227.08,1046,20.31,74204.5,6.89,-13.87,-14.33,0,*41
1532837228.3,1047,20.31,74206.8,6.89,-13.87,-14.33,0,*40
1532837229.55,1048,20.31,74206.5,6.87,-13.87,-14.33,0,*41
1532837230.76,1049,20.31,74200.8,6.87,-13.93,-14.37,0,*41
1532837232.01,1050,20.31,74202.5,6.87,-13.93,-14.47,0,*4E
1532837233.26,1051,20.31,74202.3,6.87,-13.93,-14.47,0,*4F
1532837234.51,1052,20.31,74206.0,6.87,-13.93,-14.47,0,*4C
1532837235.72,1053,20.31,74204.3,6.87,-13.93,-14.37,0,*4A
1532837236.94,1054,20.31,74204.5,6.87,-13.93,-14.33,0,*49
1532837238.16,1055,20.31,74206.0,6.87,-13.73,-14.15,0,*42
1532837239.39,1056,20.31,74206.5,6.89,-13.83,-14.23,0,*45
1532837240.62,1057,20.31,74210.8,6.89,-13.83,-14.23,0,*44
1532837241.85,1058,20.31,74206.5,6.89,-13.83,-14.23,0,*4B
1532837243.08,1059,20.31,74202.3,6.89,-13.83,-14.29,0,*40
1532837244.31,1060,20.31,74206.3,6.89,-13.83,-14.29,0,*4A
1532837245.55,1061,20.31,74202.5,6.87,-13.87,-14.33,0,*4A
1532837246.8,1062,20.31,74204.8,6.87,-13.87,-14.33,0,*49
1532837248.04,1063,20.31,74204.8,6.87,-13.79,-14.29,0,*42
1532837249.27,1064,20.31,74206.0,6.89,-13.83,-14.29,0,*4E
1532837250.46,1065,20.31,74200.8,6.89,-13.73,-14.29,0,*40
1532837251.69,1066,20.31,74204.0,6.89,-13.87,-14.29,0,*48
1532837252.91,1067,20.31,74202.8,6.89,-13.83,-14.33,0,*46
1532837254.13,1068,20.31,74202.8,6.89,-13.87,-14.33,0,*4D
1532837255.36,1069,20.31,74208.3,6.89,-13.83,-14.33,0,*48
1532837256.56,1070,20.31,74200.5,6.89,-13.73,-14.29,0,*44
1532837257.76,1071,20.31,74202.8,6.89,-13.73,-14.15,0,*4A
1532837258.98,1072,20.31,74204.5,6.89,-13.83,-14.29,0,*49
1532837260.21,1073,20.31,74208.3,6.89,-13.83,-14.29,0,*48
1532837261.46,1074,20.31,74204.3,6.87,-13.87,-14.33,0,*4E
1532837262.7,1075,20.31,74204.8,6.87,-13.79,-14.33,0,*4E
1532837263.93,1076,20.31,74204.8,6.89,-13.83,-14.33,0,*46
1532837265.17,1077,20.31,74208.3,6.87,-13.79,-14.33,0,*4C
1532837266.4,1078,20.31,74206.0,6.89,-13.83,-14.23,0,*49
1532837267.63,1079,20.31,74204.0,6.89,-13.83,-14.29,0,*42
1532837268.87,1080,20.31,74200.3,6.87,-13.87,-14.37,0,*41
1532837270.09,1081,20.31,74204.8,6.87,-13.73,-14.19,0,*47
1532837271.32,1082,20.31,74206.0,6.89,-13.83,-14.23,0,*4C
1532837272.52,1083,20.31,74206.8,6.89,-13.69,-14.15,0,*4C
1532837273.75,1084,20.31,74204.5,6.89,-13.61,-14.15,0,*43
1532837274.94,1085,20.31,74204.5,6.89,-13.73,-14.15,0,*41
1532837276.2,1086,20.31,74204.8,6.89,-13.61,-14.01,0,*44
1532837277.42,1087,20.38,74208.0,6.91,-13.69,-14.19,0,*4D
1532837278.64,1088,20.31,74206.3,6.89,-13.69,-14.01,0,*42
1532837279.87,1089,20.31,74204.0,6.89,-13.83,-14.29,0,*4D
1532837281.09,1090,20.31,74206.0,6.89,-13.87,-14.33,0,*4A
1532837282.29,1091,20.31,74204.3,6.89,-13.73,-14.29,0,*4B
1532837283.51,1092,20.31,74204.5,6.91,-13.69,-14.19,0,*49
1532837284.71,1093,20.31,74200.8,6.89,-13.73,-14.15,0,*46
1532837285.91,1094,20.31,74202.0,6.89,-13.73,-14.33,0,*45
1532837287.1,1095,20.31,74202.0,6.89,-13.55,-14.11,0,*40
1532837288.32,1096,20.38,74204.3,6.91,-13.65,-14.19,0,*41
1532837289.57,1097,20.31,74204.8,6.91,-13.79,-14.29,0,*4E
1532837290.79,1098,20.31,74202.0,6.91,-13.69,-14.19,0,*43
1532837292.01,1099,20.31,74206.5,6.91,-13.65,-14.19,0,*4E
1532837293.21,1100,20.31,74202.3,6.89,-13.73,-14.23,0,*48
1532837294.43,1101,20.31,74206.8,6.91,-13.69,-14.11,0,*4A
1532837295.65,1102,20.31,74200.5,6.91,-13.69,-14.19,0,*41
1532837296.9,1103,20.38,74202.5,6.89,-13.61,-14.01,0,*48
1532837298.1,1104,20.38,74204.5,6.89,-13.73,-14.23,0,*4C
1532837299.33,1105,20.31,74204.5,6.89,-13.83,-14.33,0,*43
1532837300.55,1106,20.31,74200.5,6.89,-13.83,-14.29,0,*4B
1532837301.78,1107,20.31,74206.5,6.89,-13.61,-14.15,0,*49
1532837302.98,1108,20.38,74206.3,6.89,-13.73,-14.15,0,*45
1532837304.2,1109,20.31,74206.8,6.91,-13.69,-14.19,0,*4A
1532837305.4,1110,20.31,74206.3,6.89,-13.73,-14.23,0,*49
1532837306.62,1111,20.38,74206.0,6.91,-13.69,-14.11,0,*4B
1532837307.83,1112,20.31,74200.0,6.91,-13.65,-14.11,0,*44
1532837309.05,1113,20.31,74202.8,6.91,-13.65,-14.11,0,*45